• In Moldova, Republic
  • List of Countries
  • For 7 days
  • Water Temperature
  • Satellite Maps
  • Weather Map
  • Weather Widgets
  • user-avatar
    Login

    Hourly Weather Mishukovo

    Today, 18 January, Friday

    Time Temperature Precipitation Wind Pressure Humidity
    00:00 -2°C° 0.1 mm 6 mps 721 mmHg 88%
    01:00 -2°C° 0.1 mm 6 mps 722 mmHg 87%
    02:00 -2°C° 0.1 mm 6 mps 722 mmHg 86%
    03:00 -2°C° 0.3 mm 6 mps 723 mmHg 87%
    04:00 -2°C° 0.3 mm 6 mps 723 mmHg 88%
    05:00 -2°C° 0.3 mm 6 mps 723 mmHg 88%
    06:00 -2°C° 0.2 mm 5 mps 724 mmHg 89%
    07:00 -2°C° 0.2 mm 5 mps 724 mmHg 90%
    08:00 -2°C° 0.2 mm 4 mps 725 mmHg 90%
    09:00 -2°C° 0.3 mm 4 mps 725 mmHg 91%
    10:00 -3°C° 0.3 mm 4 mps 726 mmHg 92%
    11:00 -2°C° 0.3 mm 3 mps 726 mmHg 92%
    12:00 -2°C° 0.3 mm 3 mps 726 mmHg 93%
    13:00 -2°C° 0.3 mm 2 mps 726 mmHg 94%
    14:00 -2°C° 0.3 mm 2 mps 726 mmHg 95%
    15:00 -3°C° 0.7 mm 2 mps 726 mmHg 95%
    16:00 -4°C° 0.7 mm 2 mps 726 mmHg 96%
    17:00 -4°C° 0.7 mm 2 mps 725 mmHg 97%
    18:00 -6°C° 1.2 mm 3 mps 725 mmHg 96%
    19:00 -7°C° 1.2 mm 3 mps 725 mmHg 95%
    20:00 -10°C° 1.2 mm 4 mps 725 mmHg 93%
    21:00 -10°C° 0.1 mm 4 mps 726 mmHg 93%
    22:00 -9°C° 0.1 mm 3 mps 727 mmHg 92%
    23:00 -9°C° 0.1 mm 3 mps 727 mmHg 92%

    Tomorrow, 19 January, Saturday

    Time Temperature Precipitation Wind Pressure Humidity
    00:00 -10°C° 0 mm 3 mps 728 mmHg 93%
    01:00 -12°C° 0 mm 3 mps 729 mmHg 93%
    02:00 -13°C° 0 mm 3 mps 730 mmHg 94%
    03:00 -13°C° 0 mm 3 mps 730 mmHg 94%
    04:00 -12°C° 0 mm 4 mps 730 mmHg 94%
    05:00 -12°C° 0 mm 4 mps 731 mmHg 95%
    06:00 -11°C° 0 mm 4 mps 731 mmHg 93%
    07:00 -11°C° 0 mm 4 mps 731 mmHg 92%
    08:00 -11°C° 0 mm 4 mps 732 mmHg 91%
    09:00 -10°C° 0 mm 4 mps 732 mmHg 91%
    10:00 -9°C° 0 mm 4 mps 732 mmHg 90%
    11:00 -10°C° 0 mm 5 mps 733 mmHg 89%
    12:00 -10°C° 0.1 mm 5 mps 733 mmHg 89%
    13:00 -10°C° 0.1 mm 5 mps 733 mmHg 89%
    14:00 -8°C° 0.1 mm 5 mps 733 mmHg 89%
    15:00 -8°C° 0.1 mm 5 mps 734 mmHg 89%
    16:00 -9°C° 0.1 mm 4 mps 734 mmHg 89%
    17:00 -9°C° 0.1 mm 4 mps 734 mmHg 89%
    18:00 -9°C° 0 mm 4 mps 735 mmHg 90%
    19:00 -9°C° 0 mm 4 mps 735 mmHg 90%
    20:00 -8°C° 0 mm 4 mps 735 mmHg 91%
    21:00 -8°C° 0.1 mm 4 mps 735 mmHg 91%
    22:00 -8°C° 0.1 mm 4 mps 736 mmHg 90%
    23:00 -8°C° 0.1 mm 4 mps 736 mmHg 90%

    Day after tomorrow, 20 January, Sunday

    Time Temperature Precipitation Wind Pressure Humidity
    00:00 -9°C° 0 mm 4 mps 736 mmHg 90%
    01:00 -9°C° 0 mm 4 mps 736 mmHg 91%
    02:00 -9°C° 0 mm 4 mps 736 mmHg 91%
    03:00 -11°C° 0 mm 5 mps 736 mmHg 91%
    04:00 -11°C° 0 mm 5 mps 735 mmHg 91%
    05:00 -12°C° 0 mm 5 mps 735 mmHg 92%
    06:00 -11°C° 0.2 mm 5 mps 734 mmHg 91%
    07:00 -9°C° 0.2 mm 6 mps 734 mmHg 90%
    08:00 -8°C° 0.2 mm 6 mps 734 mmHg 89%
    09:00 -8°C° 0.2 mm 6 mps 734 mmHg 89%
    10:00 -6°C° 0.2 mm 6 mps 734 mmHg 88%
    11:00 -5°C° 0.2 mm 6 mps 734 mmHg 87%
    12:00 -6°C° 0.5 mm 6 mps 733 mmHg 89%
    13:00 -6°C° 0.5 mm 5 mps 733 mmHg 91%
    14:00 -5°C° 0.5 mm 4 mps 733 mmHg 92%
    15:00 -6°C° 0.4 mm 3 mps 733 mmHg 93%
    16:00 -7°C° 0.4 mm 3 mps 733 mmHg 93%
    17:00 -7°C° 0.4 mm 2 mps 733 mmHg 94%
    18:00 -7°C° 0.1 mm 2 mps 733 mmHg 94%
    19:00 -8°C° 0.1 mm 2 mps 734 mmHg 94%
    20:00 -8°C° 0.1 mm 2 mps 734 mmHg 94%
    21:00 -8°C° 0 mm 2 mps 734 mmHg 94%
    22:00 -9°C° 0 mm 2 mps 734 mmHg 95%
    23:00 -9°C° 0 mm 2 mps 734 mmHg 96%

    21 January, Monday

    Time Temperature Precipitation Wind Pressure Humidity
    00:00 -10°C° 0 mm 2 mps 734 mmHg 96%
    01:00 -12°C° 0 mm 2 mps 734 mmHg 97%
    02:00 -13°C° 0 mm 2 mps 734 mmHg 97%
    03:00 -14°C° 0 mm 2 mps 734 mmHg 97%
    04:00 -15°C° 0 mm 2 mps 734 mmHg 97%
    05:00 -15°C° 0 mm 2 mps 734 mmHg 97%
    06:00 -16°C° 0 mm 2 mps 734 mmHg 97%
    07:00 -16°C° 0 mm 2 mps 734 mmHg 97%
    08:00 -16°C° 0 mm 2 mps 734 mmHg 97%
    09:00 -15°C° 0 mm 2 mps 735 mmHg 96%
    10:00 -14°C° 0 mm 2 mps 735 mmHg 95%
    11:00 -14°C° 0 mm 3 mps 735 mmHg 94%
    12:00 -14°C° 0 mm 3 mps 735 mmHg 91%
    13:00 -13°C° 0 mm 3 mps 736 mmHg 89%
    14:00 -13°C° 0 mm 3 mps 736 mmHg 87%
    15:00 -14°C° 0 mm 3 mps 736 mmHg 89%
    16:00 -15°C° 0 mm 3 mps 736 mmHg 91%
    17:00 -15°C° 0 mm 2 mps 737 mmHg 92%
    18:00 -15°C° 0 mm 2 mps 737 mmHg 94%
    19:00 -16°C° 0 mm 2 mps 737 mmHg 95%
    20:00 -17°C° 0 mm 2 mps 737 mmHg 96%
    21:00 -17°C° 0 mm 2 mps 738 mmHg 97%
    22:00 -17°C° 0 mm 2 mps 738 mmHg 97%
    23:00 -18°C° 0 mm 2 mps 738 mmHg 98%

    22 January, Tuesday

    Time Temperature Precipitation Wind Pressure Humidity
    00:00 -18°C° 0 mm 2 mps 738 mmHg 98%
    01:00 -18°C° 0 mm 2 mps 738 mmHg 98%
    02:00 -18°C° 0 mm 2 mps 739 mmHg 98%
    03:00 -19°C° 0 mm 2 mps 739 mmHg 98%
    04:00 -19°C° 0 mm 2 mps 739 mmHg 98%
    05:00 -19°C° 0 mm 2 mps 739 mmHg 98%
    06:00 -19°C° 0 mm 2 mps 739 mmHg 98%
    07:00 -19°C° 0 mm 2 mps 739 mmHg 98%
    08:00 -20°C° 0 mm 2 mps 740 mmHg 98%
    09:00 -19°C° 0 mm 2 mps 740 mmHg 97%
    10:00 -18°C° 0 mm 2 mps 740 mmHg 95%
    11:00 -18°C° 0 mm 3 mps 741 mmHg 94%
    12:00 -16°C° 0 mm 2 mps 741 mmHg 94%
    13:00 -16°C° 0 mm 2 mps 741 mmHg 94%
    14:00 -16°C° 0 mm 2 mps 741 mmHg 94%
    15:00 -17°C° 0 mm 2 mps 741 mmHg 95%
    16:00 -18°C° 0 mm 2 mps 741 mmHg 97%
    17:00 -20°C° 0 mm 2 mps 741 mmHg 98%
    18:00 -20°C° 0 mm 2 mps 741 mmHg 98%
    19:00 -20°C° 0 mm 2 mps 741 mmHg 99%
    20:00 -21°C° 0 mm 2 mps 741 mmHg 99%
    21:00 -21°C° 0 mm 2 mps 741 mmHg 99%
    22:00 -21°C° 0 mm 2 mps 742 mmHg 99%
    23:00 -21°C° 0 mm 2 mps 742 mmHg 99%

    23 January, Wednesday

    Time Temperature Precipitation Wind Pressure Humidity
    00:00 -21°C° 0 mm 2 mps 742 mmHg 99%
    01:00 -21°C° 0 mm 2 mps 742 mmHg 98%
    02:00 -21°C° 0 mm 2 mps 741 mmHg 98%
    03:00 -21°C° 0 mm 2 mps 741 mmHg 98%
    04:00 -21°C° 0 mm 2 mps 741 mmHg 98%
    05:00 -20°C° 0 mm 2 mps 741 mmHg 98%
    06:00 -19°C° 0 mm 2 mps 741 mmHg 98%
    07:00 -18°C° 0 mm 2 mps 741 mmHg 98%
    08:00 -17°C° 0 mm 2 mps 741 mmHg 97%
    09:00 -16°C° 0 mm 2 mps 741 mmHg 96%
    10:00 -14°C° 0 mm 2 mps 742 mmHg 95%
    11:00 -14°C° 0 mm 3 mps 742 mmHg 94%
    12:00 -14°C° 0 mm 3 mps 741 mmHg 94%
    13:00 -14°C° 0 mm 3 mps 741 mmHg 94%
    14:00 -13°C° 0 mm 3 mps 741 mmHg 94%
    15:00 -14°C° 0 mm 3 mps 741 mmHg 95%
    16:00 -15°C° 0 mm 3 mps 741 mmHg 96%
    17:00 -16°C° 0 mm 3 mps 741 mmHg 96%
    18:00 -17°C° 0 mm 3 mps 741 mmHg 97%
    19:00 -17°C° 0 mm 3 mps 741 mmHg 97%
    20:00 -17°C° 0 mm 3 mps 741 mmHg 97%
    21:00 -17°C° 0 mm 2 mps 741 mmHg 97%
    22:00 -18°C° 0 mm 2 mps 741 mmHg 97%
    23:00 -19°C° 0 mm 2 mps 741 mmHg 97%
    Show more